QPF
0.00 0.00 0.00 0.00 0.00 0.00 0.00 0.00 0.00 0.00 0.00 0.00 0.00 0.00 0.00 0.00 0.00 0.00 0.00 0.00 0.00 0.00 0.00 0.00 0.00 0.00 0.00 0.00 0.00 0.00 0.00 0.00 0.00 0.00 0.00 0.00 0.00 0.00 0.00 0.00 0.00 0.00 0.00 0.00 0.00 0.01 0.01 0.01 0.01
0.00 0.00 0.00 0.00 0.00 0.00 0.00 0.00 0.00 0.00 0.00 0.01 0.00 0.00 0.00 0.00 0.00 0.00 0.00 0.00 0.00 0.00 0.00 0.00 0.00 0.00 0.00 0.00 0.00 0.00 0.00 0.00 0.00 0.00 0.00 0.00 0.00 0.00 0.00 0.00 0.00 0.00 0.00 0.00 0.00 0.00 0.01 0.01 0.01
0.00 0.00 0.00 0.00 0.00 0.00 0.00 0.00 0.00 0.00 0.00 0.01 0.01 0.00 0.00 0.00 0.00 0.00 0.00 0.00 0.00 0.00 0.00 0.00 0.00 0.00 0.00 0.00 0.00 0.00 0.00 0.00 0.00 0.00 0.00 0.00 0.00 0.00 0.00 0.00 0.00 0.00 0.00 0.00 0.00 0.00 0.00 0.01 0.01
0.00 0.00 0.00 0.00 0.00 0.00 0.00 0.00 0.00 0.00 0.01 0.01 0.01 0.01 0.01 0.00 0.00 0.01 0.01 0.01 0.00 0.00 0.00 0.00 0.00 0.00 0.00 0.00 0.00 0.00 0.00 0.00 0.00 0.00 0.00 0.00 0.00 0.00 0.00 0.00 0.00 0.00 0.00 0.00 0.00 0.00 0.00 0.00 0.01
0.00 0.00 0.00 0.00 0.00 0.00 0.00 0.00 0.00 0.00 0.00 0.00 0.01 0.01 0.01 0.01 0.01 0.01 0.02 0.02 0.02 0.01 0.01 0.02 0.02 0.01 0.01 0.01 0.00 0.00 0.00 0.00 0.00 0.00 0.00 0.00 0.00 0.00 0.00 0.00 0.00 0.00 0.00 0.00 0.00 0.00 0.00 0.01 0.01
0.00 0.00 0.00 0.00 0.00 0.00 0.00 0.00 0.00 0.00 0.00 0.01 0.01 0.01 0.01 0.01 0.02 0.02 0.02 0.02 0.04 0.06 0.03 0.03 0.04 0.04 0.04 0.03 0.01 0.01 0.01 0.01 0.01 0.01 0.01 0.01 0.01 0.00 0.00 0.00 0.00 0.00 0.00 0.00 0.00 0.00 0.00 0.00 0.01
0.00 0.00 0.00 0.00 0.00 0.00 0.00 0.00 0.00 0.00 0.00 0.01 0.01 0.01 0.02 0.01 0.02 0.02 0.02 0.02 0.04 0.06 0.05 0.06 0.06 0.06 0.05 0.03 0.02 0.02 0.02 0.02 0.01 0.02 0.02 0.01 0.01 0.01 0.00 0.00 0.00 0.00 0.00 0.00 0.01 0.00 0.00 0.00 0.01
0.00 0.00 0.00 0.00 0.00 0.00 0.00 0.00 0.00 0.00 0.00 0.00 0.01 0.01 0.01 0.01 0.01 0.02 0.03 0.02 0.03 0.04 0.05 0.07 0.07 0.07 0.08 0.07 0.05 0.05 0.04 0.03 0.02 0.02 0.02 0.01 0.01 0.01 0.01 0.01 0.00 0.01 0.01 0.01 0.01 0.01 0.00 0.01 0.01
0.00 0.00 0.00 0.00 0.00 0.00 0.00 0.00 0.00 0.00 0.00 0.00 0.01 0.00 0.01 0.01 0.01 0.03 0.03 0.03 0.04 0.05 0.06 0.06 0.07 0.10 0.12 0.12 0.09 0.07 0.06 0.04 0.03 0.03 0.03 0.02 0.02 0.01 0.01 0.01 0.01 0.01 0.01 0.01 0.01 0.01 0.01 0.01 0.01
0.00 0.00 0.00 0.00 0.00 0.00 0.00 0.00 0.00 0.00 0.00 0.01 0.01 0.01 0.02 0.02 0.03 0.03 0.04 0.05 0.08 0.07 0.07 0.08 0.09 0.10 0.12 0.13 0.12 0.08 0.06 0.06 0.04 0.04 0.04 0.03 0.03 0.02 0.02 0.02 0.02 0.01 0.01 0.02 0.02 0.01 0.01 0.01 0.00
0.00 0.00 0.00 0.00 0.00 0.00 0.00 0.00 0.00 0.00 0.00 0.01 0.01 0.01 0.02 0.03 0.04 0.04 0.05 0.07 0.08 0.08 0.07 0.08 0.09 0.06 0.07 0.10 0.13 0.12 0.07 0.06 0.06 0.05 0.05 0.05 0.05 0.04 0.04 0.04 0.04 0.04 0.03 0.03 0.02 0.02 0.01 0.01 0.01
0.00 0.00 0.00 0.00 0.00 0.00 0.00 0.00 0.00 0.00 0.00 0.01 0.01 0.01 0.02 0.03 0.03 0.03 0.04 0.04 0.05 0.06 0.06 0.05 0.06 0.06 0.08 0.09 0.11 0.13 0.11 0.10 0.09 0.08 0.08 0.07 0.07 0.08 0.07 0.07 0.06 0.06 0.05 0.04 0.03 0.02 0.02 0.02 0.02
0.00 0.00 0.00 0.00 0.00 0.00 0.00 0.00 0.00 0.00 0.00 0.00 0.01 0.02 0.02 0.03 0.03 0.03 0.03 0.03 0.03 0.04 0.04 0.05 0.07 0.08 0.10 0.12 0.15 0.17 0.18 0.16 0.14 0.11 0.09 0.08 0.08 0.07 0.07 0.09 0.09 0.09 0.08 0.05 0.04 0.03 0.02 0.03 0.04
0.00 0.00 0.00 0.00 0.00 0.00 0.00 0.00 0.00 0.01 0.01 0.01 0.01 0.01 0.02 0.02 0.02 0.02 0.03 0.03 0.04 0.04 0.05 0.06 0.07 0.10 0.11 0.15 0.22 0.26 0.22 0.20 0.20 0.18 0.14 0.12 0.09 0.08 0.08 0.08 0.08 0.09 0.12 0.12 0.11 0.07 0.05 0.04 0.06
0.00 0.00 0.00 0.00 0.00 0.00 0.00 0.00 0.00 0.01 0.01 0.01 0.01 0.01 0.01 0.02 0.02 0.02 0.02 0.02 0.02 0.03 0.04 0.06 0.08 0.12 0.19 0.28 0.30 0.31 0.30 0.26 0.25 0.22 0.17 0.13 0.10 0.10 0.11 0.10 0.08 0.08 0.11 0.12 0.11 0.09 0.08 0.07 0.07
0.00 0.00 0.00 0.00 0.00 0.00 0.00 0.00 0.00 0.00 0.00 0.01 0.01 0.01 0.01 0.01 0.02 0.02 0.02 0.02 0.03 0.03 0.05 0.07 0.09 0.13 0.14 0.20 0.24 0.23 0.23 0.25 0.27 0.24 0.22 0.18 0.13 0.12 0.12 0.11 0.10 0.10 0.11 0.11 0.11 0.11 0.11 0.11 0.14
0.00 0.00 0.00 0.00 0.00 0.00 0.00 0.00 0.01 0.01 0.01 0.01 0.01 0.01 0.01 0.01 0.01 0.01 0.02 0.02 0.03 0.03 0.05 0.08 0.11 0.13 0.10 0.11 0.13 0.15 0.22 0.26 0.30 0.33 0.27 0.20 0.17 0.16 0.15 0.14 0.15 0.14 0.14 0.15 0.15 0.16 0.16 0.18 0.22
0.00 0.00 0.00 0.00 0.00 0.00 0.00 0.00 0.01 0.01 0.01 0.01 0.01 0.01 0.01 0.01 0.01 0.01 0.02 0.03 0.03 0.03 0.03 0.04 0.07 0.08 0.08 0.09 0.11 0.14 0.21 0.23 0.24 0.23 0.22 0.21 0.20 0.19 0.19 0.18 0.19 0.17 0.17 0.17 0.17 0.19 0.20 0.22 0.25
0.00 0.00 0.00 0.00 0.00 0.00 0.00 0.01 0.01 0.01 0.02 0.02 0.02 0.01 0.01 0.01 0.01 0.01 0.02 0.03 0.03 0.03 0.03 0.04 0.06 0.08 0.11 0.14 0.13 0.15 0.19 0.25 0.30 0.26 0.23 0.21 0.23 0.23 0.23 0.22 0.22 0.20 0.20 0.20 0.20 0.21 0.21 0.22 0.24
0.00 0.00 0.00 0.00 0.00 0.00 0.00 0.01 0.01 0.02 0.03 0.02 0.02 0.02 0.01 0.01 0.02 0.02 0.03 0.02 0.03 0.03 0.05 0.05 0.07 0.09 0.10 0.12 0.13 0.13 0.14 0.20 0.26 0.34 0.33 0.27 0.26 0.27 0.25 0.23 0.23 0.21 0.19 0.19 0.20 0.20 0.19 0.20 0.23
0.00 0.00 0.00 0.00 0.00 0.00 0.00 0.01 0.01 0.02 0.03 0.02 0.03 0.03 0.02 0.02 0.02 0.04 0.04 0.03 0.03 0.04 0.06 0.06 0.06 0.08 0.10 0.10 0.10 0.10 0.11 0.13 0.17 0.22 0.30 0.40 0.33 0.29 0.25 0.23 0.22 0.18 0.18 0.18 0.19 0.20 0.19 0.19 0.23
0.00 0.00 0.00 0.00 0.00 0.00 0.00 0.00 0.01 0.02 0.02 0.02 0.02 0.02 0.02 0.02 0.03 0.03 0.04 0.04 0.05 0.07 0.07 0.07 0.08 0.10 0.12 0.16 0.17 0.16 0.14 0.13 0.14 0.19 0.24 0.35 0.37 0.31 0.27 0.24 0.25 0.20 0.16 0.15 0.17 0.19 0.19 0.18 0.19
0.00 0.00 0.00 0.00 0.00 0.00 0.00 0.00 0.01 0.01 0.02 0.02 0.02 0.02 0.03 0.03 0.03 0.04 0.04 0.04 0.04 0.04 0.06 0.11 0.11 0.10 0.12 0.14 0.17 0.19 0.16 0.15 0.15 0.16 0.18 0.18 0.21 0.22 0.22 0.20 0.21 0.22 0.19 0.19 0.19 0.19 0.18 0.17 0.18
0.00 0.00 0.00 0.00 0.00 0.00 0.00 0.00 0.00 0.01 0.02 0.02 0.02 0.02 0.03 0.04 0.04 0.03 0.03 0.03 0.04 0.03 0.03 0.05 0.10 0.13 0.13 0.14 0.15 0.16 0.18 0.16 0.16 0.15 0.14 0.14 0.14 0.15 0.18 0.17 0.19 0.22 0.23 0.27 0.26 0.22 0.22 0.22 0.21
0.00 0.00 0.00 0.00 0.00 0.00 0.00 0.00 0.00 0.00 0.02 0.02 0.02 0.03 0.03 0.03 0.03 0.02 0.01 0.01 0.02 0.03 0.03 0.04 0.08 0.13 0.16 0.14 0.14 0.17 0.18 0.17 0.14 0.13 0.13 0.13 0.13 0.14 0.17 0.16 0.17 0.20 0.21 0.22 0.25 0.27 0.25 0.23 0.20
0.00 0.00 0.00 0.00 0.00 0.00 0.00 0.00 0.00 0.01 0.01 0.02 0.02 0.02 0.02 0.02 0.02 0.01 0.01 0.01 0.01 0.02 0.03 0.04 0.08 0.09 0.09 0.08 0.08 0.10 0.11 0.11 0.09 0.08 0.10 0.11 0.12 0.12 0.12 0.11 0.12 0.15 0.18 0.19 0.20 0.23 0.23 0.20 0.17
0.00 0.00 0.00 0.00 0.00 0.00 0.00 0.00 0.02 0.01 0.01 0.01 0.01 0.01 0.01 0.02 0.02 0.02 0.01 0.01 0.01 0.02 0.05 0.05 0.04 0.04 0.05 0.06 0.06 0.06 0.06 0.08 0.10 0.10 0.08 0.07 0.07 0.06 0.06 0.06 0.07 0.08 0.10 0.10 0.10 0.09 0.12 0.14 0.14
0.00 0.00 0.00 0.00 0.00 0.00 0.00 0.00 0.03 0.01 0.01 0.01 0.02 0.02 0.01 0.01 0.01 0.02 0.01 0.02 0.02 0.02 0.04 0.05 0.05 0.05 0.05 0.05 0.04 0.04 0.04 0.05 0.06 0.06 0.05 0.04 0.04 0.03 0.03 0.03 0.04 0.06 0.07 0.08 0.08 0.08 0.08 0.09 0.10
0.00 0.00 0.00 0.00 0.01 0.01 0.00 0.00 0.00 0.00 0.00 0.00 0.01 0.01 0.01 0.01 0.01 0.01 0.01 0.01 0.01 0.01 0.02 0.03 0.04 0.05 0.06 0.06 0.05 0.04 0.05 0.05 0.04 0.04 0.03 0.02 0.02 0.02 0.03 0.03 0.04 0.05 0.06 0.08 0.09 0.10 0.10 0.10 0.10
0.00 0.01 0.01 0.01 0.01 0.01 0.00 0.01 0.01 0.00 0.01 0.01 0.01 0.01 0.01 0.01 0.01 0.01 0.01 0.01 0.01 0.01 0.01 0.02 0.02 0.02 0.04 0.05 0.05 0.04 0.05 0.04 0.04 0.03 0.03 0.03 0.03 0.03 0.04 0.05 0.04 0.05 0.06 0.07 0.08 0.09 0.10 0.10 0.09
MSLP
1010.12 1011.20 1012.48 1013.75 1014.78 1015.41 1015.54 1015.19 1014.46 1013.53 1012.56 1011.73 1011.12 1010.75 1010.57 1010.49 1010.42 1010.29 1010.08 1009.83 1009.61 1009.50 1009.56 1009.82 1010.26 1010.81 1011.37 1011.87 1012.26 1012.51 1012.68 1012.81 1012.97 1013.23 1013.61 1014.09 1014.62 1015.14 1015.60 1015.95 1016.19 1016.33 1016.41 1016.48 1016.56 1016.68 1016.82 1016.98 1017.12
1010.47 1011.72 1013.09 1014.36 1015.30 1015.76 1015.68 1015.09 1014.12 1012.96 1011.81 1010.83 1010.12 1009.69 1009.48 1009.40 1009.37 1009.30 1009.18 1009.05 1008.95 1008.98 1009.17 1009.56 1010.10 1010.74 1011.39 1011.97 1012.43 1012.77 1013.01 1013.21 1013.43 1013.72 1014.10 1014.54 1015.01 1015.46 1015.83 1016.10 1016.29 1016.40 1016.49 1016.58 1016.71 1016.87 1017.06 1017.23 1017.37
1011.01 1012.34 1013.72 1014.90 1015.68 1015.93 1015.62 1014.80 1013.62 1012.29 1011.02 1009.96 1009.19 1008.73 1008.52 1008.46 1008.47 1008.47 1008.45 1008.42 1008.46 1008.61 1008.93 1009.43 1010.07 1010.79 1011.51 1012.15 1012.67 1013.07 1013.38 1013.63 1013.90 1014.20 1014.56 1014.96 1015.35 1015.71 1015.98 1016.18 1016.31 1016.40 1016.51 1016.64 1016.83 1017.06 1017.29 1017.50 1017.66
1011.71 1013.05 1014.34 1015.36 1015.93 1015.94 1015.39 1014.38 1013.05 1011.63 1010.30 1009.22 1008.46 1008.01 1007.83 1007.82 1007.88 1007.96 1008.03 1008.12 1008.27 1008.54 1008.97 1009.55 1010.25 1011.02 1011.76 1012.42 1012.97 1013.40 1013.74 1014.04 1014.33 1014.64 1014.97 1015.32 1015.64 1015.90 1016.10 1016.22 1016.31 1016.40 1016.53 1016.71 1016.97 1017.26 1017.55 1017.81 1018.00
1012.52 1013.78 1014.91 1015.71 1016.03 1015.80 1015.05 1013.89 1012.48 1011.03 1009.73 1008.70 1008.01 1007.63 1007.51 1007.56 1007.70 1007.86 1008.03 1008.22 1008.47 1008.84 1009.34 1009.96 1010.68 1011.43 1012.14 1012.78 1013.30 1013.73 1014.07 1014.38 1014.68 1014.99 1015.30 1015.61 1015.87 1016.07 1016.21 1016.28 1016.35 1016.44 1016.60 1016.83 1017.14 1017.49 1017.83 1018.13 1018.34
1013.30 1014.43 1015.35 1015.89 1015.96 1015.51 1014.61 1013.36 1011.95 1010.57 1009.36 1008.45 1007.87 1007.60 1007.57 1007.71 1007.93 1008.17 1008.43 1008.71 1009.05 1009.48 1010.00 1010.62 1011.30 1011.98 1012.61 1013.16 1013.62 1013.99 1014.31 1014.61 1014.91 1015.23 1015.55 1015.84 1016.07 1016.24 1016.34 1016.40 1016.46 1016.56 1016.73 1017.00 1017.34 1017.73 1018.10 1018.42 1018.64
1013.93 1014.87 1015.55 1015.84 1015.68 1015.06 1014.06 1012.82 1011.48 1010.22 1009.18 1008.43 1008.00 1007.86 1007.94 1008.16 1008.46 1008.78 1009.12 1009.47 1009.87 1010.32 1010.84 1011.41 1012.00 1012.56 1013.07 1013.50 1013.85 1014.15 1014.43 1014.72 1015.03 1015.37 1015.70 1016.01 1016.26 1016.43 1016.53 1016.58 1016.64 1016.75 1016.93 1017.21 1017.56 1017.94 1018.31 1018.62 1018.83
1014.28 1015.02 1015.45 1015.51 1015.17 1014.44 1013.43 1012.25 1011.06 1009.98 1009.14 1008.58 1008.31 1008.30 1008.48 1008.78 1009.14 1009.52 1009.90 1010.30 1010.73 1011.18 1011.67 1012.16 1012.64 1013.06 1013.42 1013.71 1013.96 1014.18 1014.42 1014.70 1015.03 1015.41 1015.79 1016.14 1016.42 1016.62 1016.75 1016.82 1016.88 1016.98 1017.16 1017.41 1017.74 1018.09 1018.43 1018.70 1018.89
1014.32 1014.84 1015.05 1014.93 1014.46 1013.69 1012.73 1011.68 1010.68 1009.82 1009.20 1008.83 1008.71 1008.80 1009.05 1009.39 1009.78 1010.19 1010.60 1011.02 1011.44 1011.88 1012.32 1012.73 1013.09 1013.38 1013.61 1013.78 1013.92 1014.08 1014.29 1014.58 1014.95 1015.37 1015.81 1016.22 1016.56 1016.81 1016.96 1017.05 1017.12 1017.22 1017.37 1017.59 1017.87 1018.17 1018.45 1018.67 1018.81
1014.06 1014.38 1014.42 1014.15 1013.62 1012.88 1012.02 1011.15 1010.36 1009.74 1009.31 1009.11 1009.11 1009.27 1009.54 1009.89 1010.26 1010.66 1011.06 1011.47 1011.88 1012.29 1012.67 1013.02 1013.29 1013.48 1013.61 1013.69 1013.77 1013.89 1014.09 1014.40 1014.81 1015.28 1015.78 1016.25 1016.65 1016.94 1017.14 1017.25 1017.33 1017.41 1017.54 1017.71 1017.93 1018.17 1018.39 1018.56 1018.66
1013.64 1013.78 1013.67 1013.31 1012.77 1012.10 1011.39 1010.72 1010.15 1009.74 1009.49 1009.42 1009.49 1009.67 1009.92 1010.22 1010.54 1010.88 1011.24 1011.61 1012.00 1012.38 1012.73 1013.02 1013.24 1013.38 1013.46 1013.50 1013.55 1013.66 1013.87 1014.20 1014.64 1015.15 1015.70 1016.21 1016.65 1016.99 1017.22 1017.36 1017.46 1017.54 1017.64 1017.78 1017.95 1018.14 1018.32 1018.44 1018.51
1013.19 1013.19 1012.97 1012.57 1012.05 1011.48 1010.93 1010.45 1010.09 1009.86 1009.76 1009.77 1009.86 1010.02 1010.20 1010.41 1010.64 1010.90 1011.19 1011.51 1011.85 1012.20 1012.53 1012.81 1013.02 1013.15 1013.22 1013.27 1013.33 1013.45 1013.67 1014.01 1014.46 1015.00 1015.55 1016.09 1016.56 1016.93 1017.19 1017.36 1017.47 1017.56 1017.66 1017.79 1017.95 1018.12 1018.27 1018.38 1018.44
1012.88 1012.75 1012.46 1012.04 1011.57 1011.11 1010.71 1010.42 1010.23 1010.14 1010.14 1010.20 1010.29 1010.38 1010.47 1010.57 1010.69 1010.84 1011.03 1011.29 1011.59 1011.91 1012.23 1012.52 1012.75 1012.91 1013.02 1013.09 1013.18 1013.32 1013.54 1013.88 1014.31 1014.82 1015.36 1015.88 1016.35 1016.73 1017.02 1017.22 1017.37 1017.50 1017.62 1017.77 1017.94 1018.12 1018.29 1018.42 1018.51
1012.80 1012.58 1012.23 1011.81 1011.40 1011.05 1010.79 1010.64 1010.59 1010.62 1010.68 1010.76 1010.81 1010.84 1010.83 1010.81 1010.81 1010.85 1010.95 1011.13 1011.37 1011.67 1011.99 1012.29 1012.56 1012.77 1012.92 1013.04 1013.16 1013.30 1013.51 1013.80 1014.18 1014.62 1015.10 1015.58 1016.03 1016.41 1016.72 1016.97 1017.17 1017.35 1017.53 1017.72 1017.94 1018.16 1018.38 1018.56 1018.70
1012.97 1012.68 1012.30 1011.89 1011.53 1011.27 1011.12 1011.09 1011.14 1011.25 1011.36 1011.44 1011.47 1011.43 1011.34 1011.23 1011.12 1011.06 1011.07 1011.17 1011.36 1011.62 1011.92 1012.24 1012.54 1012.79 1012.99 1013.14 1013.27 1013.40 1013.57 1013.78 1014.07 1014.42 1014.81 1015.22 1015.62 1016.00 1016.34 1016.63 1016.89 1017.14 1017.38 1017.65 1017.92 1018.21 1018.50 1018.76 1018.97
1013.31 1012.98 1012.58 1012.20 1011.89 1011.70 1011.64 1011.69 1011.82 1011.98 1012.13 1012.22 1012.23 1012.16 1012.03 1011.85 1011.68 1011.54 1011.47 1011.49 1011.61 1011.82 1012.10 1012.41 1012.71 1012.99 1013.21 1013.37 1013.49 1013.58 1013.68 1013.80 1013.97 1014.21 1014.49 1014.83 1015.19 1015.55 1015.91 1016.26 1016.58 1016.89 1017.21 1017.54 1017.87 1018.23 1018.58 1018.93 1019.23
1013.70 1013.35 1012.97 1012.62 1012.37 1012.25 1012.25 1012.36 1012.54 1012.74 1012.91 1013.02 1013.05 1012.98 1012.84 1012.65 1012.45 1012.26 1012.14 1012.09 1012.14 1012.29 1012.51 1012.78 1013.06 1013.32 1013.53 1013.68 1013.76 1013.80 1013.81 1013.83 1013.88 1014.00 1014.19 1014.45 1014.77 1015.13 1015.51 1015.90 1016.28 1016.65 1017.01 1017.38 1017.76 1018.16 1018.58 1018.99 1019.38
1014.01 1013.68 1013.34 1013.06 1012.87 1012.81 1012.87 1013.02 1013.22 1013.44 1013.64 1013.77 1013.83 1013.80 1013.70 1013.54 1013.35 1013.15 1012.99 1012.89 1012.87 1012.93 1013.07 1013.27 1013.49 1013.70 1013.87 1013.98 1014.01 1013.98 1013.91 1013.84 1013.80 1013.82 1013.93 1014.13 1014.42 1014.78 1015.19 1015.61 1016.02 1016.42 1016.81 1017.19 1017.58 1017.99 1018.43 1018.89 1019.36
1014.14 1013.88 1013.62 1013.43 1013.33 1013.33 1013.43 1013.60 1013.81 1014.03 1014.23 1014.39 1014.49 1014.53 1014.50 1014.40 1014.26 1014.09 1013.92 1013.78 1013.69 1013.66 1013.69 1013.79 1013.92 1014.06 1014.16 1014.21 1014.19 1014.11 1013.98 1013.84 1013.73 1013.69 1013.75 1013.92 1014.20 1014.57 1014.98 1015.42 1015.85 1016.24 1016.61 1016.96 1017.32 1017.70 1018.13 1018.61 1019.13
1014.08 1013.92 1013.80 1013.73 1013.74 1013.81 1013.94 1014.10 1014.29 1014.49 1014.67 1014.84 1014.98 1015.09 1015.14 1015.14 1015.08 1014.97 1014.81 1014.65 1014.49 1014.36 1014.29 1014.27 1014.29 1014.33 1014.36 1014.35 1014.28 1014.16 1014.00 1013.82 1013.69 1013.62 1013.67 1013.84 1014.12 1014.49 1014.92 1015.36 1015.77 1016.13 1016.45 1016.73 1017.02 1017.34 1017.72 1018.19 1018.73
1013.85 1013.86 1013.91 1014.00 1014.13 1014.28 1014.43 1014.57 1014.70 1014.84 1014.97 1015.13 1015.29 1015.45 1015.60 1015.70 1015.74 1015.70 1015.58 1015.41 1015.21 1015.00 1014.82 1014.68 1014.59 1014.53 1014.48 1014.41 1014.31 1014.17 1014.00 1013.83 1013.70 1013.65 1013.71 1013.89 1014.19 1014.57 1014.99 1015.41 1015.78 1016.09 1016.33 1016.53 1016.72 1016.95 1017.26 1017.68 1018.21
1013.58 1013.79 1014.05 1014.33 1014.59 1014.81 1014.96 1015.05 1015.10 1015.13 1015.18 1015.28 1015.43 1015.63 1015.86 1016.06 1016.21 1016.27 1016.22 1016.07 1015.84 1015.57 1015.30 1015.05 1014.85 1014.69 1014.56 1014.45 1014.32 1014.18 1014.04 1013.90 1013.81 1013.79 1013.88 1014.08 1014.38 1014.76 1015.16 1015.55 1015.87 1016.12 1016.28 1016.38 1016.48 1016.62 1016.84 1017.19 1017.68
1013.40 1013.83 1014.31 1014.78 1015.17 1015.44 1015.58 1015.59 1015.51 1015.41 1015.34 1015.35 1015.46 1015.68 1015.97 1016.28 1016.54 1016.71 1016.74 1016.64 1016.42 1016.11 1015.77 1015.44 1015.14 1014.90 1014.71 1014.55 1014.42 1014.29 1014.17 1014.07 1014.02 1014.04 1014.15 1014.37 1014.67 1015.03 1015.41 1015.75 1016.02 1016.20 1016.29 1016.32 1016.34 1016.39 1016.53 1016.81 1017.25
1013.39 1014.04 1014.74 1015.37 1015.87 1016.18 1016.28 1016.18 1015.96 1015.70 1015.48 1015.38 1015.45 1015.67 1016.01 1016.41 1016.79 1017.07 1017.21 1017.19 1017.00 1016.70 1016.32 1015.92 1015.56 1015.24 1015.00 1014.80 1014.66 1014.54 1014.44 1014.38 1014.36 1014.40 1014.53 1014.74 1015.02 1015.34 1015.67 1015.97 1016.19 1016.32 1016.37 1016.35 1016.31 1016.31 1016.40 1016.61 1016.98
1013.61 1014.45 1015.31 1016.08 1016.65 1016.96 1016.99 1016.78 1016.41 1015.98 1015.62 1015.42 1015.42 1015.63 1016.02 1016.51 1017.01 1017.43 1017.69 1017.76 1017.64 1017.37 1016.98 1016.56 1016.14 1015.78 1015.48 1015.26 1015.09 1014.97 1014.89 1014.84 1014.83 1014.88 1014.99 1015.17 1015.40 1015.67 1015.95 1016.19 1016.38 1016.48 1016.51 1016.48 1016.43 1016.41 1016.46 1016.63 1016.92
1014.02 1015.00 1015.97 1016.81 1017.40 1017.68 1017.63 1017.30 1016.79 1016.22 1015.74 1015.44 1015.39 1015.61 1016.05 1016.63 1017.25 1017.80 1018.19 1018.38 1018.35 1018.13 1017.77 1017.34 1016.90 1016.50 1016.17 1015.91 1015.72 1015.59 1015.50 1015.45 1015.43 1015.45 1015.52 1015.65 1015.82 1016.02 1016.23 1016.43 1016.58 1016.68 1016.71 1016.71 1016.69 1016.68 1016.73 1016.86 1017.10
1014.56 1015.59 1016.59 1017.44 1018.00 1018.21 1018.07 1017.64 1017.01 1016.34 1015.78 1015.43 1015.37 1015.61 1016.11 1016.78 1017.52 1018.20 1018.72 1019.02 1019.10 1018.96 1018.65 1018.24 1017.80 1017.38 1017.02 1016.73 1016.52 1016.37 1016.26 1016.18 1016.14 1016.12 1016.13 1016.19 1016.28 1016.40 1016.55 1016.70 1016.82 1016.93 1016.99 1017.04 1017.07 1017.11 1017.18 1017.30 1017.49
1015.11 1016.10 1017.06 1017.83 1018.31 1018.44 1018.22 1017.70 1017.02 1016.31 1015.72 1015.37 1015.34 1015.62 1016.19 1016.96 1017.80 1018.59 1019.23 1019.65 1019.82 1019.77 1019.52 1019.15 1018.73 1018.31 1017.94 1017.64 1017.41 1017.23 1017.10 1017.00 1016.92 1016.86 1016.81 1016.80 1016.81 1016.86 1016.94 1017.04 1017.15 1017.26 1017.37 1017.46 1017.56 1017.66 1017.77 1017.90 1018.07
1015.56 1016.44 1017.26 1017.90 1018.27 1018.30 1018.01 1017.46 1016.78 1016.10 1015.55 1015.26 1015.30 1015.66 1016.30 1017.14 1018.06 1018.94 1019.67 1020.18 1020.45 1020.47 1020.30 1019.98 1019.59 1019.20 1018.84 1018.53 1018.29 1018.11 1017.97 1017.85 1017.74 1017.65 1017.56 1017.50 1017.45 1017.44 1017.46 1017.52 1017.61 1017.72 1017.85 1018.00 1018.15 1018.31 1018.47 1018.62 1018.77
1015.83 1016.53 1017.17 1017.64 1017.87 1017.81 1017.48 1016.95 1016.33 1015.74 1015.31 1015.13 1015.26 1015.71 1016.43 1017.33 1018.30 1019.23 1020.01 1020.58 1020.91 1021.01 1020.90 1020.64 1020.31 1019.95 1019.61 1019.33 1019.10 1018.93 1018.79 1018.68 1018.58 1018.47 1018.37 1018.28 1018.20 1018.14 1018.12 1018.14 1018.21 1018.31 1018.46 1018.63 1018.83 1019.03 1019.23 1019.41 1019.56
Thickness
5776 5777 5775 5765 5741 5719 5721 5736 5751 5762 5773 5788 5794 5792 5785 5780 5773 5773 5802 5810 5806 5800 5794 5789 5785 5781 5778 5777 5775 5774 5773 5772 5770 5769 5768 5767 5765 5764 5762 5761 5759 5759 5758 5757 5756 5754 5753 5751 5750
5773 5773 5764 5747 5722 5708 5718 5739 5749 5763 5778 5789 5794 5794 5787 5787 5796 5796 5800 5804 5803 5798 5792 5787 5783 5779 5776 5773 5771 5770 5769 5767 5766 5765 5764 5762 5761 5760 5759 5757 5756 5755 5755 5754 5753 5751 5750 5749 5747
5769 5767 5748 5729 5714 5711 5726 5747 5755 5769 5781 5785 5786 5791 5788 5787 5795 5797 5802 5803 5800 5794 5789 5785 5780 5777 5773 5770 5768 5766 5764 5763 5761 5760 5759 5758 5757 5756 5755 5754 5752 5752 5751 5750 5750 5748 5747 5746 5745
5761 5749 5735 5720 5718 5724 5736 5751 5759 5764 5777 5785 5785 5780 5788 5795 5798 5800 5802 5800 5795 5790 5786 5782 5778 5774 5770 5767 5765 5763 5761 5760 5758 5756 5754 5753 5753 5752 5751 5750 5749 5748 5748 5747 5746 5745 5744 5743 5742
5750 5734 5719 5709 5718 5731 5743 5755 5762 5762 5770 5780 5781 5774 5778 5790 5798 5799 5797 5794 5790 5785 5782 5778 5775 5771 5768 5764 5762 5760 5758 5757 5755 5753 5751 5750 5749 5748 5747 5746 5746 5745 5744 5743 5742 5742 5741 5740 5740
5730 5720 5703 5703 5717 5734 5746 5757 5761 5763 5768 5775 5776 5771 5773 5784 5788 5790 5791 5788 5785 5781 5778 5774 5771 5768 5765 5762 5759 5757 5755 5753 5752 5750 5748 5747 5745 5744 5744 5743 5742 5742 5741 5740 5739 5738 5738 5737 5737
5721 5709 5703 5710 5716 5727 5748 5759 5758 5761 5763 5770 5776 5766 5767 5775 5782 5784 5783 5781 5778 5776 5773 5769 5766 5763 5761 5758 5756 5754 5752 5750 5749 5748 5746 5744 5742 5741 5740 5740 5739 5738 5737 5736 5736 5735 5735 5734 5734
5726 5711 5708 5706 5715 5726 5747 5754 5759 5761 5763 5776 5777 5765 5763 5772 5778 5778 5776 5773 5771 5769 5767 5764 5761 5760 5757 5754 5752 5750 5749 5747 5746 5744 5743 5741 5739 5739 5738 5737 5736 5735 5734 5733 5732 5732 5732 5731 5731
5726 5701 5697 5709 5717 5729 5744 5747 5755 5764 5765 5768 5772 5772 5774 5775 5773 5769 5765 5763 5762 5761 5760 5759 5757 5755 5753 5750 5748 5746 5745 5744 5742 5741 5739 5737 5736 5736 5735 5734 5733 5732 5732 5730 5729 5729 5728 5728 5728
5714 5695 5706 5720 5727 5734 5739 5742 5748 5753 5753 5755 5759 5765 5769 5768 5765 5760 5757 5755 5754 5754 5754 5754 5752 5750 5748 5746 5744 5742 5741 5739 5738 5737 5736 5734 5732 5731 5731 5730 5729 5729 5729 5728 5727 5726 5725 5725 5725
5714 5706 5716 5726 5733 5736 5736 5740 5747 5745 5742 5749 5751 5754 5757 5758 5756 5754 5752 5751 5751 5750 5749 5748 5747 5746 5744 5743 5741 5739 5737 5735 5734 5732 5731 5730 5729 5727 5727 5726 5725 5725 5725 5724 5723 5723 5722 5721 5721
5712 5717 5722 5730 5737 5736 5736 5739 5739 5741 5743 5752 5754 5753 5751 5749 5748 5748 5747 5746 5745 5744 5743 5743 5743 5741 5739 5738 5737 5735 5733 5731 5730 5728 5727 5726 5725 5723 5722 5722 5721 5721 5721 5720 5719 5719 5718 5718 5717
5712 5718 5726 5731 5733 5733 5735 5733 5734 5735 5743 5748 5747 5745 5743 5741 5740 5741 5741 5740 5738 5737 5737 5737 5738 5736 5734 5732 5730 5729 5729 5728 5726 5725 5723 5722 5721 5720 5719 5718 5717 5717 5716 5716 5715 5715 5714 5714 5714
5717 5719 5723 5728 5730 5733 5730 5729 5729 5729 5737 5739 5737 5735 5735 5733 5733 5733 5732 5731 5730 5730 5730 5730 5730 5730 5729 5727 5724 5723 5722 5721 5721 5720 5719 5718 5717 5717 5716 5715 5714 5713 5712 5711 5711 5711 5710 5710 5710
5717 5714 5717 5723 5726 5728 5728 5718 5720 5726 5730 5727 5727 5726 5725 5724 5725 5724 5724 5724 5724 5724 5724 5724 5724 5723 5722 5720 5719 5716 5715 5714 5714 5714 5713 5712 5712 5712 5711 5710 5710 5709 5708 5707 5706 5706 5705 5705 5705
5711 5703 5699 5712 5719 5724 5719 5701 5712 5719 5720 5716 5717 5718 5716 5715 5716 5716 5716 5715 5716 5716 5716 5716 5717 5715 5714 5713 5711 5710 5709 5709 5708 5707 5707 5706 5706 5706 5705 5705 5705 5704 5703 5702 5702 5701 5701 5700 5700
5688 5685 5691 5700 5711 5714 5708 5698 5705 5712 5712 5708 5708 5708 5707 5706 5706 5707 5708 5708 5708 5708 5708 5707 5708 5707 5707 5706 5705 5704 5703 5702 5701 5701 5701 5701 5700 5701 5700 5700 5700 5699 5699 5698 5698 5697 5697 5695 5695
5681 5685 5687 5689 5701 5703 5696 5693 5698 5703 5703 5699 5699 5698 5697 5696 5696 5697 5699 5700 5700 5700 5699 5699 5699 5698 5698 5698 5697 5695 5696 5695 5694 5694 5694 5694 5696 5696 5695 5695 5695 5694 5694 5694 5694 5693 5693 5691 5690
5689 5686 5682 5689 5700 5693 5688 5686 5689 5693 5693 5690 5689 5688 5687 5686 5687 5688 5689 5690 5690 5690 5690 5690 5689 5689 5689 5689 5688 5687 5686 5686 5686 5686 5687 5687 5689 5689 5688 5688 5688 5688 5689 5689 5690 5689 5687 5686 5684
5686 5683 5682 5687 5697 5690 5681 5679 5683 5685 5685 5684 5682 5680 5679 5678 5679 5679 5679 5680 5680 5680 5680 5681 5681 5680 5681 5682 5681 5681 5679 5678 5679 5680 5680 5681 5682 5682 5682 5682 5682 5683 5683 5683 5684 5684 5683 5681 5680
5686 5683 5685 5684 5687 5685 5679 5670 5674 5677 5679 5678 5676 5674 5673 5672 5670 5669 5670 5669 5670 5670 5671 5672 5671 5672 5672 5673 5673 5673 5671 5671 5671 5671 5671 5672 5673 5674 5676 5677 5677 5677 5678 5678 5678 5679 5680 5677 5675
5684 5697 5694 5688 5675 5664 5671 5653 5665 5668 5669 5669 5668 5666 5665 5664 5663 5661 5661 5660 5660 5660 5662 5663 5662 5662 5663 5664 5665 5664 5663 5662 5661 5661 5661 5663 5664 5666 5667 5667 5669 5670 5670 5671 5673 5673 5674 5674 5671
5694 5700 5692 5685 5671 5660 5660 5650 5654 5662 5662 5663 5662 5659 5657 5656 5654 5652 5651 5650 5650 5650 5651 5651 5652 5653 5653 5655 5656 5656 5655 5653 5652 5652 5653 5654 5654 5656 5658 5659 5661 5662 5663 5664 5665 5666 5667 5669 5667
5699 5689 5678 5666 5658 5649 5655 5649 5649 5654 5659 5659 5657 5654 5650 5648 5645 5643 5641 5641 5641 5641 5641 5642 5642 5642 5642 5644 5645 5645 5644 5643 5642 5641 5642 5642 5644 5646 5647 5649 5651 5653 5653 5654 5656 5657 5660 5661 5661
5691 5670 5651 5649 5638 5641 5652 5647 5648 5659 5662 5659 5654 5648 5644 5640 5636 5633 5631 5630 5631 5631 5631 5631 5631 5631 5631 5632 5633 5633 5632 5632 5630 5631 5631 5631 5633 5634 5636 5638 5640 5642 5643 5646 5648 5650 5651 5652 5652
5683 5673 5649 5640 5636 5637 5645 5642 5651 5659 5658 5656 5649 5642 5636 5631 5628 5624 5622 5620 5620 5620 5619 5620 5620 5620 5620 5621 5620 5620 5620 5620 5619 5620 5620 5620 5620 5622 5624 5626 5628 5631 5633 5636 5638 5640 5641 5642 5642
5678 5667 5666 5645 5639 5632 5635 5645 5653 5654 5649 5645 5640 5635 5629 5624 5620 5616 5613 5611 5609 5608 5608 5609 5609 5609 5609 5609 5608 5608 5607 5607 5607 5608 5608 5608 5609 5611 5612 5615 5617 5620 5622 5624 5627 5629 5629 5630 5630
5682 5665 5651 5640 5629 5627 5636 5639 5642 5649 5646 5642 5636 5630 5624 5618 5613 5608 5604 5602 5599 5598 5597 5598 5598 5597 5596 5596 5596 5596 5595 5594 5595 5596 5596 5597 5598 5599 5601 5604 5606 5609 5611 5613 5615 5616 5617 5618 5617
5672 5663 5648 5635 5634 5624 5622 5634 5656 5654 5650 5642 5634 5627 5619 5613 5606 5601 5597 5593 5590 5589 5588 5587 5586 5585 5585 5584 5584 5584 5583 5582 5582 5583 5583 5585 5586 5588 5589 5592 5594 5596 5599 5600 5602 5603 5604 5605 5605
5672 5665 5650 5640 5635 5627 5622 5632 5657 5653 5648 5640 5630 5622 5614 5606 5599 5594 5589 5585 5582 5580 5578 5576 5575 5574 5573 5572 5571 5571 5570 5570 5570 5570 5571 5573 5574 5576 5577 5579 5581 5584 5585 5587 5588 5590 5591 5591 5591